Location: Oriwa
(40.7500°S, 175.3333°E)
Time: 09:58:21
(UTC+00:00)

Cosmos 1674 - Pass Details

Date: 03 February 2023
Orbit: 476 x 497 km, 82.5° (Epoch: 19 March)

Event Time Altitude Azimuth Distance (km) Brightness Sun altitude
Exits shadow 14:32:25 37° 123° (ESE) 777 4.0 -26.4°
Drops below altitude 10° 14:35:11 10° 159° (SSE) 1,709 6.3 -26.1°
Sets 14:37:22 0° 165° (SSE) 2,605 7.4 -25.9°
